Regional Weather Roundup
Issued by NWS

Home | Current Version | Previous Version | Text Only | Print | Product List | Glossary On
Versions: 1 2 3 4 5 6 7 8 9 10 11 12 13 14 15 16 17 18 19 20 21 22 23 24 25 26 27 28 29 30 31 32 33 34 35 36 37 38 39 40 41 42 43 44 45 46 47 48 49 50
000
ASCA42 TJSJ 212211
RWRPR
PUERTO RICO/U.S. VIRGIN ISLANDS HOURLY WEATHER ROUNDUP
NATIONAL WEATHER SERVICE SAN JUAN PR
600 PM AST THU AUG 21 2014

PRZ001-004-212300-
PUERTO RICO

CITY           SKY/WX    TMP DP  RH WIND       PRES   REMARKS
SAN JUAN LMM   MOSUNNY   82  79  89 N13       29.92F HX  93
MAYAGUEZ       PTSUNNY   90  73  58 E14       29.92F HX  98
AGUADILLA      PTSUNNY   82  73  74 NE15G23   29.93F
CEIBA          PTCLDY    81  75  83 NE13G22   29.93S
$$

PRZ006-007-212300-
U.S. VIRGIN ISLANDS

CITY           SKY/WX    TMP DP  RH WIND       PRES   REMARKS
CHARLOTTE AMA  MOCLDY    82  73  74 E14G24    29.90S
$$

HOURLY WEATHER ROUNDUP FOR THE NEWS MEDIA

CITY           SKY/WX    TMP DP  RH WIND       PRES   REMARKS
MIAMI          MOSUNNY   89  73  59 SE9       30.07S HX  97
ORLANDO        MOSUNNY   89  73  59 SE12      30.04R HX  97
NEW YORK       PTSUNNY   76  61  59 SE10      30.03F
NEWARK         PTSUNNY   77  60  55 SE10G16   30.01S
CHICAGO        CLOUDY    75  71  87 SE9       29.93F
HARTFORD       CLOUDY    73  61  65 E7        30.05R
BOSTON         PTSUNNY   68  64  87 E8        30.07S
DALLAS         MOSUNNY   98  64  32 S14       29.94F HX 100
PHILADELPHIA   CLOUDY    82  69  64 S8        29.99F


USA.gov is the U.S. government's official web portal to all federal, state and local government web resources and services.